Theta_e
323 325 328 331 332 332 332 332 332 333 333 333 333 333 334 334 334 333 333 332 333 333 333 331 331 333 333 333 329 326 325 325
323 324 328 331 332 330 330 330 331 332 331 331 331 332 333 333 333 332 332 332 332 332 332 332 333 333 331 331 330 328 325 326
322 323 327 330 330 330 330 330 330 331 329 329 331 332 333 332 331 331 331 332 331 331 332 332 332 329 325 327 330 328 326 322
323 324 327 329 329 329 329 329 329 330 329 329 330 331 331 331 331 330 330 330 333 331 332 330 328 327 302 309 322 327 325 324
324 326 329 330 329 330 329 329 330 330 329 329 330 330 329 330 329 329 329 331 331 328 331 329 328 329 302 305 311 328 328 325
328 330 330 331 331 330 331 330 329 329 329 329 329 329 328 329 328 328 331 331 330 327 330 329 330 322 302 302 308 328 327 326
330 331 331 331 330 331 330 328 329 329 330 330 330 329 328 328 328 330 332 332 327 328 329 328 330 323 301 302 317 327 325 323
330 331 331 331 331 331 328 327 328 328 330 330 330 329 328 328 329 330 332 334 331 329 327 329 316 324 300 303 317 325 321 319
331 330 330 331 330 330 328 328 328 330 332 331 330 329 329 330 330 330 331 331 330 329 327 329 326 322 316 300 308 324 321 321
330 329 330 331 330 329 327 328 330 330 332 331 329 330 327 329 330 330 331 332 330 328 327 323 322 322 306 301 304 309 313 322
328 329 329 329 329 330 327 330 330 330 332 329 330 329 329 331 330 331 330 330 328 325 325 322 320 321 315 299 299 301 306 321
327 326 327 327 329 329 330 330 330 330 331 328 330 329 328 330 330 331 330 329 327 324 323 321 321 321 318 316 316 314 305 309
327 325 327 328 329 328 330 329 330 330 330 326 330 329 329 330 330 329 331 332 327 327 325 324 322 321 320 313 317 322 321 314
324 325 327 328 327 328 328 329 330 331 330 328 328 329 329 329 327 324 296 301 300 301 304 317 325 306 299 299 299 298 298 300
322 324 326 327 326 326 328 328 329 330 330 330 329 326 329 328 328 328 325 311 295 295 296 299 303 302 296 295 295 296 297 304
322 323 324 325 324 325 326 327 329 330 332 310 330 329 329 329 328 328 328 327 323 326 300 301 293 294 294 294 295 301 315 315
315 318 320 321 321 321 324 327 328 328 329 328 330 330 330 326 329 327 327 326 326 326 317 305 296 291 292 293 297 323 320 320
309 309 313 314 316 319 322 326 328 328 329 313 318 330 329 329 328 326 325 325 325 325 328 326 310 309 315 311 321 325 324 324
307 304 306 308 311 319 320 324 327 326 328 328 313 329 329 329 329 327 326 324 324 326 328 324 300 326 325 323 324 326 327 327
305 303 300 303 303 314 320 318 325 327 327 327 328 328 329 329 329 329 328 327 326 325 326 318 291 324 329 328 327 328 329 329
Wind_Speed
1 6 9 12 13 14 13 14 14 13 14 14 12 11 11 10 10 9 9 10 9 7 6 5 4 4 3 4 5 6 8 8
3 5 9 11 13 14 15 14 14 13 14 13 12 10 10 9 9 10 9 9 8 6 4 4 4 1 2 4 4 6 6 6
6 6 9 11 12 14 15 14 13 13 12 12 10 9 9 9 9 9 8 7 6 5 6 5 4 3 4 4 4 5 8 5
10 9 12 13 14 13 14 13 13 12 11 10 10 9 9 9 9 9 7 6 6 7 7 5 5 3 6 4 3 6 6 5
12 13 13 13 14 13 13 12 12 10 10 9 9 8 8 9 8 9 8 6 6 6 6 5 4 4 6 2 4 5 5 4
13 13 13 13 14 13 12 11 11 10 9 8 9 9 9 9 9 8 7 5 6 6 5 5 4 4 3 2 4 6 6 6
13 13 14 14 14 13 12 11 10 9 8 8 9 9 10 10 9 7 5 8 6 5 5 5 5 4 3 4 5 5 6 6
13 15 15 14 13 13 12 11 10 9 8 9 10 10 10 9 9 7 4 5 6 5 5 4 6 5 2 3 4 5 5 4
14 15 14 14 13 13 12 11 10 7 6 9 10 9 9 8 8 6 6 6 7 5 5 5 5 4 3 1 6 5 5 5
16 14 14 13 13 12 12 11 9 8 8 10 10 9 7 7 8 6 5 6 7 6 5 4 3 3 4 2 6 8 7 7
13 13 15 14 13 12 12 10 9 9 9 10 10 9 7 7 7 7 5 5 5 5 5 4 3 3 3 6 7 9 9 8
12 12 14 14 13 12 12 10 10 10 10 8 9 8 7 6 5 4 4 6 5 5 5 5 4 3 4 4 5 7 10 10
11 12 14 15 15 13 11 11 11 10 10 7 9 7 7 7 4 2 3 4 2 6 5 6 6 5 4 7 8 8 8 9
9 8 11 13 14 14 12 12 12 11 10 8 7 7 6 6 6 5 9 8 3 4 5 4 5 7 12 11 10 12 16 14
4 8 10 12 13 13 13 13 13 12 10 9 7 6 7 6 6 6 7 6 10 10 6 4 4 11 11 11 12 12 13 11
9 5 7 11 12 12 13 14 13 12 10 10 9 8 7 7 6 6 5 6 6 6 9 7 7 12 12 13 14 11 6 3
12 14 10 10 10 7 9 11 12 11 9 8 8 7 7 6 5 5 5 5 4 7 6 5 8 10 9 9 11 8 8 8
14 14 11 11 10 7 2 9 10 8 8 7 7 8 7 8 6 6 5 5 5 6 7 8 7 5 6 7 8 8 8 8
14 14 13 13 10 7 6 2 9 7 6 7 5 6 7 8 8 7 6 6 5 5 6 8 10 8 8 9 9 8 9 8
13 14 19 14 14 9 9 8 3 6 6 6 7 6 5 7 7 7 7 7 6 5 5 6 7 7 7 8 9 9 8 8
Wind_Direction
137 145 147 144 132 130 129 127 123 127 125 120 119 121 127 129 131 135 138 137 146 155 166 186 192 208 221 235 219 184 182 189
163 152 153 146 137 135 133 127 130 132 129 127 125 130 131 131 129 136 140 148 155 163 173 137 146 116 348 318 280 191 167 180
181 167 153 149 143 142 139 135 139 138 135 133 131 134 134 132 134 139 140 155 165 175 137 140 96 46 24 352 93 134 143 131
190 174 168 157 153 150 143 142 144 145 139 136 144 141 141 142 143 142 150 153 147 123 138 121 84 46 3 330 103 121 137 155
190 175 175 160 154 151 152 147 148 148 145 143 144 144 147 144 144 151 157 149 133 131 134 108 89 63 14 83 103 119 133 146
187 173 166 162 154 157 152 153 154 155 152 150 152 158 150 148 144 144 153 134 129 137 129 111 102 62 26 134 141 118 114 122
182 169 161 157 160 156 158 163 163 164 163 158 156 154 153 152 151 149 142 135 137 145 135 122 102 96 82 173 148 115 106 104
169 160 156 155 160 159 160 170 174 177 165 162 154 153 154 156 153 153 149 124 129 142 131 100 81 117 111 167 133 116 98 86
163 159 152 157 156 162 170 174 185 179 159 156 151 154 156 154 153 156 156 143 141 143 125 107 96 119 135 193 116 120 113 114
165 158 149 155 159 166 174 182 177 168 159 155 149 149 155 155 159 155 157 143 144 143 132 108 95 103 110 120 111 113 122 116
166 155 148 156 163 175 180 179 168 162 158 151 150 151 155 157 159 150 137 145 152 152 158 138 135 123 101 81 100 110 109 109
155 148 159 155 167 177 191 166 166 164 151 147 148 154 155 157 149 144 139 155 157 164 159 145 136 119 119 127 117 102 97 94
153 164 175 166 171 178 182 172 167 165 154 149 152 150 166 146 114 98 138 129 127 161 164 161 154 151 159 153 150 138 142 122
134 189 171 168 176 174 180 172 171 163 158 159 163 158 159 151 147 131 53 35 54 33 125 139 123 102 134 139 124 119 124 145
120 188 170 166 176 170 181 171 172 171 164 162 159 167 163 159 161 158 141 77 65 59 58 84 60 134 137 132 130 133 144 145
47 126 175 161 163 174 178 170 169 174 171 159 174 178 174 166 167 166 153 155 156 145 57 52 97 131 137 132 132 123 148 198
61 69 55 82 108 130 175 171 174 172 168 169 184 182 176 165 160 162 166 150 138 140 126 93 73 83 101 133 160 163 173 182
56 58 46 42 36 28 110 172 169 172 181 164 180 177 166 176 170 175 166 163 154 152 165 148 141 146 155 164 191 179 185 186
64 52 45 34 6 2 37 137 177 175 182 162 194 184 181 187 184 184 179 176 179 168 164 159 166 177 171 179 196 196 197 196
47 46 34 12 354 351 46 43 292 171 176 178 179 198 188 188 197 193 188 189 186 180 165 129 158 220 184 184 197 208 209 211